Theta_e
321 321 321 320 320 318 318 318 317 317 317 316 316 316 316 315 315 315 314 315 315 314 313 312 312 312 307 296 295 300 331 323 316 310 299 296 294 294 293 296 295 293 296 298 300 299 297
321 321 321 320 318 317 317 318 318 318 317 317 316 315 315 315 315 315 315 314 314 314 313 312 312 311 300 289 299 313 324 315 313 303 299 297 295 298 296 295 294 295 297 298 297 297 294
321 321 319 318 317 316 317 317 317 317 316 316 316 316 314 314 314 315 315 314 314 313 313 313 313 309 302 296 307 314 314 309 311 302 299 298 299 299 298 294 296 295 293 295 295 296 296
321 319 317 317 317 317 317 316 316 316 316 316 315 315 314 314 314 314 314 314 314 314 313 313 315 307 297 309 309 307 308 303 306 302 302 301 300 297 296 297 296 293 291 288 294 296 298
320 317 317 317 317 317 316 315 315 315 315 316 314 314 314 313 313 313 313 313 313 316 314 314 308 303 295 312 309 311 306 302 302 302 302 305 300 296 297 293 289 290 286 288 293 297 297
318 316 316 316 316 316 315 315 315 315 315 315 314 314 313 313 313 313 313 313 311 315 312 311 310 300 301 302 310 308 306 304 301 300 298 298 296 292 290 289 283 287 288 289 290 295 294
316 316 316 316 316 315 314 314 315 315 315 314 313 312 312 312 312 312 310 302 304 302 305 299 300 301 303 309 311 306 307 305 304 298 292 295 290 287 290 292 293 292 290 289 292 295 292
316 315 316 315 315 314 314 314 314 314 314 313 313 312 312 312 312 312 309 300 300 300 296 305 305 304 307 309 303 305 308 300 298 292 293 289 287 293 295 294 293 291 289 288 292 295 292
315 315 315 315 314 314 313 313 313 313 313 312 311 312 312 312 311 306 304 301 305 304 293 300 306 304 306 307 302 303 304 298 295 291 290 287 291 296 294 292 291 289 288 289 290 293 292
315 315 315 314 312 311 311 312 312 312 312 310 311 310 312 311 303 302 300 306 306 304 289 295 302 306 307 306 301 308 302 299 295 291 290 289 293 294 292 291 292 286 293 294 292 289 284
315 315 314 313 311 311 311 311 311 311 311 310 310 310 311 311 304 300 303 304 303 299 281 299 302 310 309 303 303 302 300 296 293 294 293 290 292 290 289 292 294 291 295 292 292 287 284
315 315 314 313 312 312 311 311 309 309 309 308 309 309 310 307 305 304 305 304 303 289 282 296 301 300 300 302 303 302 299 300 299 294 293 293 296 295 294 295 295 296 291 288 286 284 280
315 315 314 314 313 312 312 310 309 309 308 308 308 308 307 307 299 303 304 300 289 284 298 295 295 299 298 297 298 299 296 294 291 287 286 291 292 295 297 291 293 290 285 279 278 278 279
313 313 313 313 313 313 311 310 308 307 307 307 307 306 306 306 306 304 301 294 285 292 295 305 299 299 294 296 296 296 293 290 293 293 290 287 285 293 297 294 290 288 287 280 276 277 279
311 312 312 313 312 312 311 309 308 306 306 308 307 303 298 300 306 304 298 289 288 294 303 300 299 293 292 295 295 294 292 291 294 294 289 288 290 300 301 299 297 289 284 288 282 283 280
310 309 309 309 310 310 310 309 308 306 307 307 302 299 297 305 307 301 297 292 294 303 304 302 294 296 290 294 293 291 291 296 297 297 297 294 289 298 300 300 298 294 294 286 284 278 277
307 307 308 308 308 308 308 308 307 308 307 306 301 292 303 307 306 299 292 293 299 306 306 301 297 296 295 295 295 293 292 297 299 297 297 293 290 291 294 291 290 292 289 288 287 283 278
306 306 307 307 307 307 307 307 308 308 306 304 298 288 307 307 297 295 292 299 301 304 306 303 302 299 298 295 294 294 294 296 301 299 293 293 289 286 289 293 296 291 289 289 283 282 281
305 305 306 306 307 307 307 307 307 307 306 300 293 294 305 310 292 292 298 300 303 302 302 300 298 300 299 295 292 295 295 299 301 300 295 295 287 281 281 288 292 289 290 290 288 286 283
304 305 305 305 306 307 307 306 306 306 306 301 295 289 301 304 302 297 296 297 298 305 303 302 298 298 295 293 295 294 294 300 302 301 304 300 289 284 280 282 287 286 288 288 286 281 282
304 305 305 305 306 306 306 306 306 306 306 301 296 294 299 293 297 298 297 296 296 296 301 301 296 296 293 289 290 290 293 296 298 301 296 292 285 285 286 289 289 287 287 287 285 285 282
306 305 305 305 305 306 306 306 306 306 306 300 295 296 299 296 298 298 296 294 296 296 295 294 293 294 293 289 290 288 290 291 291 294 291 290 284 284 283 288 287 286 287 287 287 287 286
306 306 305 306 306 306 306 307 307 306 305 299 299 304 298 295 295 295 294 294 293 297 297 298 296 293 291 291 292 292 292 291 293 292 288 287 285 282 280 285 284 280 284 286 286 288 287
306 306 305 305 305 306 306 307 307 307 305 301 300 300 296 290 294 293 295 295 293 294 292 296 296 292 295 296 293 292 291 291 292 290 291 285 283 281 278 280 274 282 290 291 288 291 292
305 305 305 305 305 305 306 307 307 307 306 299 300 299 296 289 292 294 295 292 295 295 294 294 295 295 295 291 285 282 284 286 287 289 289 288 282 281 274 276 281 285 291 290 288 288 295
304 305 305 304 305 305 306 306 306 306 307 297 299 304 300 293 290 295 294 295 290 291 293 294 296 296 294 288 285 279 279 284 285 287 291 289 286 279 282 279 273 284 293 298 294 283 295
304 305 304 304 305 305 306 306 306 306 306 301 299 303 299 292 293 296 293 291 294 290 289 292 292 291 291 285 280 280 281 287 282 282 284 285 282 280 284 281 284 289 294 298 280 282 294
304 304 304 304 304 305 306 306 306 307 307 303 298 302 300 295 295 299 299 296 295 291 288 289 289 290 286 280 282 281 281 281 282 289 288 285 283 284 285 282 278 295 294 288 289 291 295
304 304 304 304 304 305 305 306 306 306 306 303 294 303 302 297 294 297 300 301 300 300 293 290 288 289 288 283 282 283 280 281 281 277 291 286 285 282 284 283 289 294 292 295 294 294 295
Wind_Speed
16 15 14 14 13 12 12 11 10 12 13 14 15 16 17 17 17 17 16 15 15 15 14 11 6 1 1 2 15 8 5 16 14 10 12 8 7 6 7 7 6 5 3 6 11 7 5
15 14 14 14 13 13 13 12 11 11 13 13 14 18 16 17 17 16 14 15 13 14 14 11 7 6 1 4 6 6 7 17 16 11 8 10 10 6 6 6 8 7 8 10 5 7 4
14 13 15 15 15 13 14 12 12 11 13 13 14 15 19 18 18 17 15 15 15 16 13 7 10 6 5 21 2 4 5 6 12 9 13 6 6 8 7 4 5 3 3 6 6 5 7
13 13 13 14 15 16 14 15 13 14 16 14 14 15 17 19 19 17 16 16 19 21 12 10 11 6 11 6 5 4 4 5 5 2 4 6 5 2 3 3 3 6 2 3 4 9 6
12 12 13 14 15 15 16 17 15 15 18 18 16 16 16 18 19 18 16 17 22 10 9 12 6 5 13 5 4 7 6 8 8 2 3 5 7 5 3 5 2 4 3 5 5 9 4
11 12 14 14 15 14 15 16 17 16 18 18 18 17 18 18 18 16 14 17 9 6 7 6 4 2 7 5 4 6 6 12 5 7 0 4 3 4 2 4 7 6 5 4 5 1 3
11 13 15 16 16 15 16 17 17 18 18 19 19 20 20 19 19 14 7 4 2 3 8 12 9 6 4 4 6 5 7 6 6 5 6 5 4 6 7 5 5 5 3 2 3 3 3
12 13 14 15 16 16 16 16 18 19 19 19 18 20 20 18 19 16 6 5 8 0 7 23 13 13 6 4 4 4 10 7 5 5 4 4 4 7 6 5 3 2 2 3 6 5 4
12 14 15 16 16 16 17 17 17 17 19 18 20 18 19 18 20 5 6 13 2 9 4 6 11 10 7 9 7 6 12 6 5 5 5 6 3 8 6 4 5 3 4 3 6 4 3
12 14 15 15 18 18 19 19 20 20 21 20 20 21 18 17 5 2 7 5 9 5 3 6 8 9 8 7 4 7 8 7 2 9 9 5 4 6 4 4 7 3 8 9 5 4 3
14 14 14 14 18 17 18 19 20 21 21 22 21 21 17 7 8 5 4 5 5 3 3 4 6 3 9 10 7 6 6 5 8 6 8 7 6 4 4 7 7 8 5 6 5 3 4
15 16 16 16 16 16 17 17 20 22 23 24 25 23 17 8 4 11 5 7 2 2 8 4 6 8 9 6 1 4 6 6 6 5 2 8 2 5 8 5 10 5 5 7 5 4 4
18 17 17 17 17 17 16 16 22 23 25 26 27 26 19 9 6 2 5 4 2 4 5 6 5 7 10 13 11 8 8 10 7 7 5 3 3 2 3 2 2 6 6 3 3 1 6
19 19 19 19 18 16 14 16 22 26 26 28 29 31 12 8 13 5 3 2 5 5 7 4 6 12 7 7 4 4 8 6 2 8 2 5 3 8 4 8 8 6 9 7 6 5 4
18 20 20 21 19 15 16 17 20 23 26 25 29 5 4 5 10 9 4 6 7 5 1 4 1 9 5 6 7 5 8 10 6 6 6 6 2 6 2 4 10 4 4 6 8 3 3
20 19 20 19 17 18 19 19 19 24 23 25 8 6 6 3 14 4 3 9 5 3 4 2 3 4 6 8 5 6 6 3 6 5 3 6 6 1 3 2 5 4 7 4 3 6 4
20 21 20 20 20 20 21 20 20 20 19 25 3 6 3 8 8 2 7 6 9 3 4 3 4 6 2 6 5 4 6 2 3 3 4 5 4 2 1 5 1 3 2 6 6 5 6
20 21 20 20 19 20 18 18 16 15 16 6 3 5 4 4 3 3 3 5 8 4 2 3 3 7 1 4 5 4 5 4 3 5 5 1 5 3 3 4 2 2 3 4 6 5 2
22 23 22 22 21 20 18 17 17 16 10 4 6 5 5 2 3 3 4 10 10 6 5 3 2 1 5 4 5 3 5 6 4 5 4 3 3 4 5 5 5 6 3 4 4 3 6
20 20 21 22 22 20 18 17 17 17 12 4 3 5 3 2 3 2 3 5 8 1 4 1 5 6 7 4 5 4 3 7 4 5 13 8 4 4 6 3 3 4 2 2 5 3 3
19 20 20 20 20 19 19 18 16 16 14 3 2 4 2 4 2 3 1 4 3 3 7 6 8 5 7 5 4 4 4 3 8 8 7 5 4 2 2 3 3 4 4 4 6 5 6
22 21 20 20 19 18 18 18 18 15 17 3 3 3 4 3 7 6 1 4 2 4 4 5 4 4 6 5 1 7 7 4 3 6 5 4 3 2 2 2 1 5 7 6 6 5 6
22 21 19 19 18 18 17 18 16 13 9 3 4 3 2 4 7 1 2 4 9 4 8 8 5 11 13 4 5 6 6 5 7 7 4 4 6 3 2 2 3 7 10 9 5 5 6
22 20 20 19 19 18 17 17 14 12 4 2 3 4 3 4 6 7 7 4 15 3 6 5 8 3 2 6 5 7 9 8 7 6 3 6 5 3 2 3 1 4 2 5 7 4 5
23 22 22 21 20 19 19 18 15 14 4 1 2 3 3 3 3 7 9 8 9 9 8 7 4 3 5 6 5 5 5 3 3 3 3 4 5 4 4 2 6 2 2 2 3 5 6
23 23 19 21 20 19 19 16 14 11 9 1 2 3 2 2 3 6 3 5 3 3 4 4 4 4 6 4 4 3 3 3 3 4 5 5 5 7 3 2 5 5 2 2 2 5 4
22 23 18 19 19 19 19 16 14 12 9 2 3 3 2 2 3 5 3 2 1 1 3 1 5 5 4 3 3 3 1 2 3 6 5 4 2 6 3 3 6 6 4 1 5 6 3
22 23 16 17 16 17 18 15 14 14 11 3 3 3 3 2 4 4 5 4 4 4 2 2 2 5 4 5 3 1 2 1 2 2 6 5 6 4 4 3 8 4 2 6 6 2 4
20 20 18 16 16 16 15 15 13 12 12 4 2 3 2 1 3 2 4 2 3 2 2 3 3 2 2 4 1 3 2 2 1 2 3 3 5 5 8 6 4 3 3 4 4 5 4
Wind_Direction
325 324 327 329 329 323 316 316 317 321 321 323 325 323 323 323 322 321 319 316 312 314 311 297 258 205 238 237 252 276 292 159 164 162 165 154 151 138 174 183 154 210 219 198 235 244 270
325 329 329 328 328 329 320 319 320 320 319 318 320 322 320 318 319 317 313 314 306 307 308 287 222 167 139 268 238 309 137 150 167 150 154 148 183 183 161 189 175 211 199 242 252 249 212
328 340 344 350 337 328 325 328 323 319 322 321 314 313 320 319 318 317 314 311 308 304 297 242 201 188 214 242 286 58 139 163 166 162 166 177 163 169 152 150 213 176 209 254 223 232 231
333 344 343 336 332 332 335 337 335 332 332 320 316 317 319 317 318 318 316 314 308 302 271 196 187 201 248 236 236 148 180 95 149 96 92 152 136 89 191 191 61 157 127 189 244 163 237
341 338 334 331 327 329 334 334 327 332 324 321 320 317 315 315 316 319 320 313 310 302 167 173 164 207 262 293 224 186 163 145 133 48 351 135 135 210 139 142 64 10 180 197 278 201 133
333 333 334 330 329 330 328 326 327 321 320 320 317 316 318 317 316 317 317 306 289 98 147 170 231 272 255 236 188 152 167 136 131 120 290 161 158 166 96 134 190 177 189 220 211 146 168
330 333 333 329 329 330 326 321 318 318 320 322 322 320 318 317 316 313 329 353 229 226 222 200 193 225 286 245 128 152 151 140 123 136 172 203 147 193 182 174 155 156 178 198 243 283 3
327 330 325 322 325 325 320 321 322 320 321 322 318 317 317 314 312 304 270 220 229 119 277 227 237 262 282 16 341 161 130 143 146 168 136 72 195 203 162 147 129 109 193 257 283 261 162
325 323 320 321 322 321 323 322 318 319 321 319 321 317 315 314 308 309 229 225 237 12 256 257 195 221 221 150 208 226 147 139 143 144 167 147 228 152 146 138 137 176 170 235 231 358 288
320 320 319 318 323 324 325 324 326 323 323 320 317 316 314 321 322 282 256 260 233 172 279 250 191 233 174 169 224 190 166 137 157 170 156 195 235 135 149 173 146 251 205 214 223 112 215
312 315 313 316 315 315 315 320 325 328 319 319 315 313 313 313 291 243 226 35 87 94 277 175 161 155 161 166 136 205 178 82 158 158 119 229 174 150 145 206 150 221 156 181 186 162 127
305 307 305 301 304 307 311 319 325 324 323 319 317 312 315 290 228 237 299 357 82 72 249 199 134 166 160 130 61 114 149 98 144 122 88 192 211 147 178 192 170 132 104 46 57 91 239
308 305 303 301 301 300 309 319 326 326 323 321 317 309 301 256 233 149 211 132 138 200 297 183 172 152 174 159 156 174 162 166 154 125 168 148 191 259 154 138 54 81 66 11 360 3 225
327 324 310 304 299 302 313 315 329 329 324 321 318 309 274 213 208 234 14 130 215 234 257 0 131 139 167 139 187 135 135 136 125 115 137 164 192 177 202 181 186 180 151 156 194 199 240
326 331 328 327 322 317 316 318 317 331 322 320 314 302 260 239 169 154 187 208 206 224 320 319 227 156 163 175 136 127 163 167 156 159 142 149 208 302 131 162 143 174 153 185 105 14 78
340 341 341 338 337 331 321 315 315 327 321 322 312 303 260 157 159 153 177 231 223 228 350 95 294 189 162 163 116 119 147 186 149 183 146 187 127 215 313 96 46 140 154 93 2 142 217
336 336 334 333 326 319 317 316 324 329 331 321 276 312 295 139 161 159 207 225 239 265 6 151 254 295 139 140 120 113 164 52 133 99 112 131 110 217 116 24 110 30 84 57 108 125 168
335 333 328 323 319 321 327 329 331 333 336 340 296 308 345 164 155 179 196 201 242 252 38 302 177 214 176 44 76 109 131 104 134 132 96 75 127 126 113 292 251 67 123 119 135 197 140
339 337 333 332 330 329 328 330 332 333 352 327 309 274 299 212 199 207 248 231 239 248 130 313 171 76 13 89 103 92 91 358 57 86 127 165 25 84 9 3 10 73 50 104 108 74 185
334 334 333 330 333 335 336 337 337 334 336 321 287 301 287 212 253 104 355 235 202 229 182 33 318 162 112 40 5 104 91 27 29 79 90 81 79 141 185 159 145 140 168 163 113 125 201
325 328 333 331 333 335 337 332 332 327 333 291 221 267 356 314 302 332 82 300 198 182 113 92 283 67 121 134 69 97 81 92 30 20 51 86 114 91 120 127 136 191 218 200 197 199 183
329 329 331 333 335 336 338 330 331 328 333 238 283 306 335 288 310 250 219 29 260 109 17 159 159 19 64 102 169 166 122 95 156 31 59 24 117 104 71 15 284 269 247 217 228 246 263
332 329 333 333 333 331 335 333 328 332 347 321 321 297 305 321 313 232 39 24 325 140 20 56 92 87 75 93 86 93 76 91 137 129 114 95 128 102 210 17 309 285 232 214 187 195 174
332 339 336 332 334 335 335 333 333 331 355 273 286 310 307 316 348 356 358 73 352 289 126 86 12 32 115 99 89 55 59 68 81 48 101 119 96 74 125 31 258 250 272 210 201 220 190
339 340 342 341 340 343 339 334 342 343 353 288 293 295 314 309 319 8 23 80 4 17 44 75 39 325 118 64 67 59 14 69 62 67 74 113 110 102 123 172 295 290 139 163 160 235 188
335 334 338 338 343 340 337 336 347 349 350 40 276 295 312 313 11 313 348 43 105 28 349 24 9 13 56 78 72 105 165 142 140 113 40 57 86 109 160 183 223 241 228 318 140 281 144
337 339 338 339 338 339 342 346 347 347 355 17 298 328 265 333 312 358 26 338 5 113 93 27 341 26 31 61 82 112 122 346 145 138 147 129 55 174 164 213 272 230 244 20 102 235 183
338 340 336 334 336 342 345 352 1 4 1 14 282 325 347 350 297 356 9 15 356 25 73 296 37 3 41 66 97 143 108 260 83 148 158 158 157 176 161 198 261 163 110 173 210 226 233
335 337 339 332 335 341 344 347 351 352 2 19 327 330 327 259 277 306 273 231 210 124 96 16 154 67 150 95 90 105 75 49 129 203 349 167 183 182 178 211 237 227 200 269 171 218 243